2021-046E

Last updated on Thu Jun 03 2021 00:03:40 GMT+0000 (Coordinated Universal Time)

1 48807U 21046E 21152.99944577 .03025307 72111-5 28272-2 0 9995 2 48807 41.8301 15.4843 0181980 201.8265 157.4739 15.85667675 554

Satellite not in orbit

2021-046E